DW5977 Weather Reports


time (UTC)temp
C
wind
direction
speed
KPH
gust
KPH
rain 1hr
cm
rain 24hr
cm
rain mn
cm
humidity
%
barometer
mb
20260504014503 11 234 9.7 27.4 0.00 0.00 0.00 55 1009.1
20260504014024 11 230 11.3 35.4 0.00 0.00 0.00 54 1009.2
20260504013524 12 228 12.9 35.4 0.00 0.00 0.00 53 1009.1
20260504013003 12 229 11.3 29.0 0.00 0.00 0.00 52 1009.1
20260504012503 12 231 11.3 29.0 0.00 0.00 0.00 52 1009.1
20260504012003 11 229 9.7 29.0 0.00 0.00 0.00 53 1009.2
20260504011524 11 229 9.7 29.0 0.00 0.00 0.00 55 1009.1
20260504011003 11 235 11.3 27.4 0.00 0.00 0.00 55 1009.2
20260504010503 11 235 12.9 24.1 0.00 0.00 0.00 55 1009.2
20260504010024 11 237 11.3 24.1 0.00 0.00 0.00 55 1009.2
20260504005503 11 235 9.7 24.1 0.00 0.00 0.00 57 1009.2
20260504005003 11 226 9.7 29.0 0.00 0.00 0.00 57 1009.1
20260504004503 11 232 9.7 29.0 0.00 0.00 0.00 57 1009.0
20260504004003 11 235 11.3 29.0 0.00 0.00 0.00 57 1009.0
20260504003503 11 226 11.3 29.0 0.00 0.00 0.00 58 1009.0
20260504003003 11 226 9.7 24.1 0.00 0.00 0.00 59 1009.0
20260504002503 11 237 9.7 20.9 0.00 0.00 0.00 60 1009.0
20260504002003 10 242 9.7 25.7 0.00 0.00 0.00 60 1009.1
20260504001503 10 231 8.0 25.7 0.00 0.00 0.00 62 1009.0
20260504001003 10 238 6.4 19.3 0.00 0.00 0.00 63 1009.1
20260504000524 10 248 6.4 19.3 0.00 0.00 0.00 63 1009.1
20260504000003 10 243 6.4 17.7 0.00 0.00 0.00 64 1009.2
20260503235503 10 244 6.4 17.7 0.00 0.00 0.00 64 1009.2
20260503235003 10 243 6.4 17.7 0.00 0.00 0.00 64 1009.2
20260503234503 10 243 6.4 17.7 0.00 0.00 0.00 63 1009.2
20260503234003 10 245 6.4 16.1 0.00 0.00 0.00 65 1009.3
20260503233503 10 249 6.4 14.5 0.00 0.00 0.00 66 1009.2
20260503233003 10 247 4.8 14.5 0.00 0.00 0.00 66 1009.2
20260503232503 10 244 6.4 16.1 0.00 0.00 0.00 66 1009.3
20260503232024 10 253 8.0 24.1 0.00 0.00 0.00 66 1009.3
20260503231503 10 251 11.3 24.1 0.00 0.00 0.00 66 1009.3
20260503231024 10 249 11.3 25.7 0.00 0.00 0.00 66 1009.4
20260503230524 10 253 11.3 25.7 0.00 0.00 0.00 65 1009.3
20260503230003 10 248 12.9 32.2 0.00 0.00 0.00 64 1009.5
20260503225503 10 240 11.3 32.2 0.00 0.00 0.00 64 1009.5
20260503225003 10 236 11.3 27.4 0.00 0.00 0.00 63 1009.5
20260503224524 10 241 9.7 27.4 0.00 0.00 0.00 62 1009.6
20260503224003 10 246 9.7 24.1 0.00 0.00 0.00 62 1009.7
20260503223503 10 249 8.0 24.1 0.00 0.00 0.00 62 1009.7
20260503223003 10 249 9.7 29.0 0.00 0.00 0.00 62 1009.6
20260503222503 10 247 9.7 29.0 0.00 0.00 0.00 62 1009.7
20260503222003 10 246 11.3 27.4 0.00 0.00 0.00 62 1009.8
20260503221503 10 236 11.3 29.0 0.00 0.00 0.00 61 1009.7
20260503221024 10 237 12.9 33.8 0.00 0.00 0.00 61 1009.7
20260503220503 10 249 12.9 37.0 0.00 0.00 0.00 61 1009.7
20260503220003 10 243 11.3 37.0 0.00 0.00 0.00 61 1009.7
20260503215503 10 236 12.9 37.0 0.00 0.00 0.00 61 1009.6
20260503215003 10 237 14.5 37.0 0.00 0.00 0.00 60 1009.8
20260503214503 11 236 16.1 35.4 0.00 0.00 0.00 60 1009.5
20260503214003 11 235 14.5 35.4 0.00 0.00 0.00 59 1009.4
20260503213503 11 236 12.9 33.8 0.00 0.00 0.00 59 1009.3
20260503213003 11 239 14.5 43.5 0.00 0.00 0.00 60 1009.3
20260503212503 11 231 12.9 43.5 0.00 0.00 0.00 59 1009.2
20260503212003 11 227 11.3 38.6 0.00 0.00 0.00 60 1009.3
20260503211503 10 242 12.9 38.6 0.00 0.00 0.00 60 1009.2
20260503211003 10 245 14.5 38.6 0.00 0.00 0.00 60 1009.3
20260503210503 10 236 12.9 32.2 0.00 0.00 0.00 60 1009.3
20260503210003 10 230 12.9 33.8 0.00 0.00 0.00 60 1009.4
20260503205503 10 231 12.9 33.8 0.00 0.00 0.00 60 1009.5
20260503205003 10 233 11.3 30.6 0.00 0.00 0.00 61 1009.6
20260503204503 10 230 12.9 30.6 0.00 0.00 0.00 60 1009.6
20260503204003 10 233 14.5 30.6 0.00 0.00 0.00 60 1009.6
20260503203503 10 231 14.5 30.6 0.00 0.00 0.00 59 1009.5
20260503203003 11 229 14.5 35.4 0.00 0.00 0.00 59 1009.8
20260503202503 11 234 16.1 48.3 0.00 0.00 0.00 58 1009.8
20260503202003 11 235 16.1 48.3 0.00 0.00 0.00 56 1009.8
20260503201503 11 232 16.1 38.6 0.00 0.00 0.00 56 1009.8
20260503201003 11 237 16.1 38.6 0.00 0.00 0.00 55 1009.8
20260503200524 11 239 14.5 38.6 0.00 0.00 0.00 54 1010.1
20260503200003 11 228 14.5 40.2 0.00 0.00 0.00 54 1010.1
20260503195503 11 227 16.1 40.2 0.00 0.00 0.00 53 1010.2
20260503195003 11 231 14.5 37.0 0.00 0.00 0.00 54 1010.1
20260503194503 11 239 14.5 35.4 0.00 0.00 0.00 54 1010.3
20260503194003 11 243 16.1 35.4 0.00 0.00 0.00 52 1010.3
20260503193503 11 245 17.7 37.0 0.00 0.00 0.00 52 1010.5
20260503193003 11 247 19.3 46.7 0.00 0.00 0.00 51 1010.5
20260503192524 11 235 17.7 46.7 0.00 0.00 0.00 52 1010.5
20260503192024 11 229 14.5 40.2 0.00 0.00 0.00 52 1010.6
20260503191503 11 240 14.5 32.2 0.00 0.00 0.00 52 1010.6
20260503191003 11 242 16.1 40.2 0.00 0.00 0.00 52 1010.7
20260503190503 11 241 16.1 40.2 0.00 0.00 0.00 53 1010.7
20260503190003 11 241 14.5 32.2 0.00 0.00 0.00 51 1010.9
20260503185503 11 237 14.5 32.2 0.00 0.00 0.00 49 1010.6
20260503185003 11 236 16.1 35.4 0.00 0.00 0.00 49 1010.9
20260503184503 11 236 17.7 35.4 0.00 0.00 0.00 47 1010.9
20260503184003 11 245 17.7 35.4 0.00 0.00 0.00 47 1011.0
20260503183503 11 250 17.7 37.0 0.00 0.00 0.00 44 1011.0
20260503183003 11 241 16.1 37.0 0.00 0.00 0.00 42 1011.1
20260503182503 11 235 14.5 33.8 0.00 0.00 0.00 43 1011.1
20260503182004 12 235 14.5 30.6 0.00 0.00 0.00 43 1011.2
20260503181504 11 231 16.1 35.4 0.00 0.00 0.00 42 1011.3
20260503181003 12 225 12.9 35.4 0.00 0.00 0.00 42 1011.3
20260503180503 12 226 11.3 29.0 0.00 0.00 0.00 43 1011.4
20260503180024 12 225 12.9 33.8 0.00 0.00 0.00 43 1011.5
20260503175524 12 229 12.9 33.8 0.00 0.00 0.00 42 1011.5
20260503175003 12 237 11.3 24.1 0.00 0.00 0.00 44 1011.5
20260503174503 11 231 12.9 37.0 0.00 0.00 0.00 43 1011.8
20260503174003 11 227 12.9 37.0 0.00 0.00 0.00 40 1011.8
20260503173524 11 225 9.7 25.7 0.00 0.00 0.00 43 1012.0
20260503173003 11 222 8.0 32.2 0.00 0.00 0.00 46 1012.0
20260503172504 10 228 9.7 32.2 0.00 0.00 0.00 51 1012.0
20260503172003 10 224 12.9 29.0 0.00 0.00 0.00 54 1012.1
20260503171503 10 223 11.3 29.0 0.00 0.00 0.00 54 1012.2
20260503171003 10 233 11.3 29.0 0.00 0.00 0.00 59 1012.3
20260503170503 10 227 11.3 24.1 0.00 0.00 0.00 59 1012.2
20260503151003 8 240 12.9 32.2 0.00 0.00 0.00 65 1013.6
20260503150503 8 231 12.9 32.2 0.00 0.00 0.00 65 1013.4
20260503131024 7 221 9.7 24.1 0.00 0.00 0.00 69 1013.5
20260503130503 7 230 9.7 22.5 0.00 0.00 0.00 69 1013.6
20260503110503 0 152 0.0 1.6 0.00 0.00 0.00 91 1013.7
20260503090503 -1 0 0.0 0.0 0.00 0.00 0.00 88 1013.8
20260503081503 0 0 0.0 0.0 0.00 0.00 0.00 88 1013.9
20260503081003 0 0 0.0 0.0 0.00 0.00 0.00 88 1013.9
20260503080503 0 0 0.0 0.0 0.00 0.00 0.00 88 1013.9
20260503072524 0 0 0.0 0.0 0.00 0.00 0.00 88 1013.6
20260503072003 0 0 0.0 0.0 0.00 0.00 0.00 87 1013.6
20260503071503 1 0 0.0 0.0 0.00 0.00 0.00 88 1013.6
20260503071003 1 167 0.0 1.6 0.00 0.00 0.00 88 1013.7
20260503070503 1 167 0.0 1.6 0.00 0.00 0.00 88 1013.7
20260503055003 0 0 0.0 0.0 0.00 0.00 0.00 84 1014.1
20260503054503 0 0 0.0 0.0 0.00 0.00 0.00 84 1014.1
20260503054003 1 0 0.0 0.0 0.00 0.00 0.00 84 1014.1
20260503053503 1 0 0.0 0.0 0.00 0.00 0.00 84 1014.1
20260503053024 1 0 0.0 0.0 0.00 0.00 0.00 83 1014.2
20260503052503 1 0 0.0 0.0 0.00 0.00 0.00 83 1014.1
20260503052003 1 0 0.0 0.0 0.00 0.00 0.00 82 1014.2
20260503051503 1 0 0.0 0.0 0.00 0.00 0.00 82 1014.3
20260503051003 1 0 0.0 0.0 0.00 0.00 0.00 82 1014.4
20260503050503 1 0 0.0 0.0 0.00 0.00 0.00 81 1014.3
20260503050003 1 0 0.0 0.0 0.00 0.00 0.00 81 1014.3
20260503045503 2 0 0.0 0.0 0.00 0.00 0.00 80 1014.4
20260503045024 2 0 0.0 0.0 0.00 0.00 0.00 80 1014.5
20260503044503 2 0 0.0 0.0 0.00 0.00 0.00 80 1014.4
20260503044003 2 0 0.0 0.0 0.00 0.00 0.00 79 1014.5
20260503043503 2 0 0.0 0.0 0.00 0.00 0.00 79 1014.5
20260503043003 2 167 0.0 1.6 0.00 0.00 0.00 79 1014.5
20260503042524 2 167 0.0 1.6 0.00 0.00 0.00 79 1014.6
20260503042024 3 167 0.0 4.8 0.00 0.00 0.00 78 1014.6
20260503041524 3 167 1.6 6.4 0.00 0.00 0.00 78 1014.6
20260503041003 3 167 1.6 6.4 0.00 0.00 0.00 78 1014.7
20260503040503 3 166 1.6 6.4 0.00 0.00 0.00 77 1014.7
20260503040003 3 166 1.6 6.4 0.00 0.00 0.00 77 1014.7
20260503035524 3 166 1.6 6.4 0.00 0.00 0.00 76 1014.7
20260503035003 3 166 1.6 6.4 0.00 0.00 0.00 76 1014.8
20260503034503 3 167 3.2 6.4 0.00 0.00 0.00 75 1014.8
20260503034024 3 167 1.6 6.4 0.00 0.00 0.00 75 1014.8
20260503033524 3 168 0.0 3.2 0.00 0.00 0.00 75 1014.8
20260503033003 3 168 1.6 9.7 0.00 0.00 0.00 74 1014.7
20260503032503 4 167 3.2 9.7 0.00 0.00 0.00 74 1014.8
20260503032024 4 171 3.2 8.0 0.00 0.00 0.00 73 1014.8
20260503031524 4 179 3.2 8.0 0.00 0.00 0.00 73 1014.9
20260503031003 4 183 3.2 8.0 0.00 0.00 0.00 72 1014.8
20260503030503 4 182 3.2 8.0 0.00 0.00 0.00 71 1014.7
20260503030003 5 192 1.6 6.4 0.00 0.00 0.00 70 1014.8
20260503025503 5 205 1.6 4.8 0.00 0.00 0.00 70 1014.8
20260503025003 5 211 1.6 3.2 0.00 0.00 0.00 70 1014.8
20260503024524 5 211 0.0 3.2 0.00 0.00 0.00 70 1014.8
20260503024003 5 211 0.0 1.6 0.00 0.00 0.00 70 1014.9
20260503023503 5 211 0.0 3.2 0.00 0.00 0.00 70 1014.9
20260503023003 5 211 1.6 3.2 0.00 0.00 0.00 70 1014.9
20260503022503 5 211 1.6 3.2 0.00 0.00 0.00 69 1014.9
20260503022003 5 211 1.6 4.8 0.00 0.00 0.00 69 1015.1
20260503021503 5 211 1.6 4.8 0.00 0.00 0.00 69 1015.0
20260503021003 5 211 1.6 4.8 0.00 0.00 0.00 69 1015.0
20260503020503 5 210 1.6 6.4 0.00 0.00 0.00 70 1015.2
20260503020003 5 207 1.6 6.4 0.00 0.00 0.00 70 1015.2
20260503015524 5 205 0.0 4.8 0.00 0.00 0.00 71 1015.3
20260503015003 5 205 1.6 4.8 0.00 0.00 0.00 71 1015.3